Location: Auckland
(36.8670°S, 174.7670°E)
Time: 13:52:58
(UTC+12:00)

NOSS 2-1 (E) - Pass Details

Date: 27 April 2019
Orbit: 471 x 1733 km, 63.3° (Epoch: 21 May)

Event Time Altitude Azimuth Distance (km) Brightness Sun altitude
Rises 18:00:19 0° 261° (W) 5,033 9.7 -4.6°
Reaches altitude 10° 18:05:22 10° 242° (WSW) 4,014 8.5 -5.6°
Maximum altitude 18:11:27 17° 206° (SSW) 3,355 7.5 -6.8°
Drops below altitude 10° 18:17:07 10° 169° (SSE) 3,666 7.3 -7.9°
Sets 18:21:26 0° 149° (SSE) 4,424 7.5 -8.7°
